User: anonymous   Login
Location: Unspecified
(0.0000°N, 0.0000°E)
Time: 11:49:14
(UTC+00:00)
Language:

Nova 3 - Orbit

View from above orbital plane
View from above orbital plane
View from above satellite
View from above satellite

Ground track
Ground track

The orbit data is extracted from the following two-line orbital elements,

1 15362U 84110A   21015.90277604  .00000042  00000-0  80496-4 0  9992
2 15362  90.0793  62.6018 0030392 225.7369 308.3854 13.22798127750084
Epoch (UTC): 15 January 2021 21:39:59
Eccentricity: 0.0030392
inclination: 90.0793°
perigee height: 1151 km
apogee height: 1197 km
right ascension of ascending node: 62.6018°
argument of perigee: 225.7369°
revolutions per day: 13.22798127
mean anomaly at epoch: 308.3854°
orbit number at epoch: 75008

The dashed part of the orbit path shows where the satellite is in the earth's shadow,  

DLR